| time (UTC) | temp F | wind direction | speed knots | gust knots | rain 1hr in | rain 24hr in | rain mn in | humidity % | barometer mb |
| 20260505153349 | 45 | 93 | 0.9 | 1.7 | 0.00 | 0.00 | 0.00 | 76 | |
| 20260505152846 | 46 | 97 | 0.9 | 1.7 | 0.00 | 0.00 | 0.00 | 76 | |
| 20260505152344 | 46 | 85 | 0.0 | 0.9 | 0.00 | 0.00 | 0.00 | 75 | |
| 20260505151843 | 46 | 93 | 0.0 | 0.9 | 0.00 | 0.00 | 0.00 | 75 | |
| 20260505151340 | 46 | 70 | 0.0 | 0.9 | 0.00 | 0.00 | 0.00 | 74 | |
| 20260505150837 | 46 | 99 | 0.9 | 0.9 | 0.00 | 0.00 | 0.00 | 73 | |
| 20260505150334 | 46 | 87 | 0.9 | 0.9 | 0.00 | 0.00 | 0.00 | 73 | |
| 20260505140259 | 47 | 61 | 0.9 | 1.7 | 0.00 | 0.00 | 0.00 | 74 | |
| 20260505130223 | 47 | 84 | 0.9 | 0.9 | 0.00 | 0.00 | 0.00 | 73 | |
| 20260505124713 | 47 | 88 | 0.9 | 0.9 | 0.00 | 0.00 | 0.00 | 73 | |
| 20260505124209 | 47 | 93 | 0.0 | 0.9 | 0.00 | 0.00 | 0.00 | 72 | |
| 20260505123705 | 47 | 85 | 0.9 | 0.9 | 0.00 | 0.00 | 0.00 | 72 | |
| 20260505123202 | 47 | 87 | 0.9 | 0.9 | 0.00 | 0.00 | 0.00 | 72 | |
| 20260505122659 | 47 | 83 | 0.0 | 0.9 | 0.00 | 0.00 | 0.00 | 72 | |
| 20260505122156 | 46 | 95 | 0.0 | 0.9 | 0.00 | 0.00 | 0.00 | 73 | |
| 20260505121653 | 46 | 58 | 0.0 | 0.0 | 0.00 | 0.00 | 0.00 | 74 | |
| 20260505121149 | 46 | 73 | 0.0 | 0.0 | 0.00 | 0.00 | 0.00 | 74 | |
| 20260505120645 | 46 | 99 | 0.0 | 0.0 | 0.00 | 0.00 | 0.00 | 74 | |
| 20260505120141 | 46 | 77 | 0.0 | 0.0 | 0.00 | 0.00 | 0.00 | 73 | |
| 20260505115635 | 46 | 82 | 0.0 | 0.0 | 0.00 | 0.00 | 0.00 | 73 | |
| 20260505115133 | 46 | 104 | 0.0 | 0.0 | 0.00 | 0.00 | 0.00 | 73 | |
| 20260505114630 | 47 | 88 | 0.0 | 0.0 | 0.00 | 0.00 | 0.00 | 73 | |
| 20260505114126 | 47 | 106 | 0.0 | 0.9 | 0.00 | 0.00 | 0.00 | 73 | |
| 20260505113623 | 46 | 85 | 0.0 | 0.0 | 0.00 | 0.00 | 0.00 | 74 | |
| 20260505113120 | 46 | 71 | 0.0 | 0.0 | 0.00 | 0.00 | 0.00 | 74 | |
| 20260505112616 | 46 | 96 | 0.0 | 0.0 | 0.00 | 0.00 | 0.00 | 74 | |
| 20260505112114 | 47 | 54 | 0.0 | 0.0 | 0.00 | 0.00 | 0.00 | 75 | |
| 20260505111608 | 47 | 46 | 0.0 | 0.0 | 0.00 | 0.00 | 0.00 | 76 | |
| 20260505111104 | 46 | 23 | 0.0 | 0.0 | 0.00 | 0.00 | 0.00 | 76 | |
| 20260505110601 | 46 | 35 | 0.0 | 0.0 | 0.00 | 0.00 | 0.00 | 76 | |
| 20260505102033 | 46 | 34 | 0.0 | 0.0 | 0.00 | 0.00 | 0.00 | 82 | |
| 20260505101532 | 46 | 51 | 0.0 | 0.0 | 0.00 | 0.00 | 0.00 | 80 | |
| 20260505101027 | 46 | 57 | 0.0 | 0.0 | 0.00 | 0.00 | 0.00 | 79 | |
| 20260505100525 | 47 | 79 | 0.0 | 0.0 | 0.00 | 0.00 | 0.00 | 79 | |
| 20260505100021 | 46 | 89 | 0.0 | 0.0 | 0.00 | 0.00 | 0.00 | 79 | |
| 20260505095517 | 46 | 62 | 0.0 | 0.0 | 0.00 | 0.00 | 0.00 | 79 | |
| 20260505095014 | 47 | 32 | 0.0 | 0.0 | 0.00 | 0.00 | 0.00 | 78 | |
| 20260505094511 | 47 | 76 | 0.0 | 0.0 | 0.00 | 0.00 | 0.00 | 76 | |
| 20260505094007 | 47 | 65 | 0.0 | 0.0 | 0.00 | 0.00 | 0.00 | 75 | |
| 20260505093503 | 48 | 56 | 0.0 | 0.0 | 0.00 | 0.00 | 0.00 | 74 | |
| 20260505093001 | 49 | 99 | 0.0 | 0.0 | 0.00 | 0.00 | 0.00 | 73 | |
| 20260505092458 | 48 | 121 | 0.0 | 0.0 | 0.00 | 0.00 | 0.00 | 74 | |
| 20260505091956 | 48 | 93 | 0.0 | 0.0 | 0.00 | 0.00 | 0.00 | 73 | |
| 20260505091453 | 49 | 100 | 0.0 | 0.0 | 0.00 | 0.00 | 0.00 | 73 | |
| 20260505090951 | 49 | 94 | 0.0 | 0.0 | 0.00 | 0.00 | 0.00 | 72 | |
| 20260505090449 | 49 | 94 | 0.0 | 0.0 | 0.00 | 0.00 | 0.00 | 72 | |
| 20260505085946 | 49 | 93 | 0.0 | 0.0 | 0.00 | 0.00 | 0.00 | 71 | |
| 20260505085444 | 50 | 95 | 0.0 | 0.0 | 0.00 | 0.00 | 0.00 | 70 | |
| 20260505084942 | 50 | 81 | 0.0 | 0.0 | 0.00 | 0.00 | 0.00 | 70 | |
| 20260505084440 | 50 | 101 | 0.0 | 0.9 | 0.00 | 0.00 | 0.00 | 70 | |
| 20260505083937 | 50 | 101 | 0.0 | 0.9 | 0.00 | 0.00 | 0.00 | 69 | |
| 20260505083434 | 50 | 97 | 0.0 | 0.9 | 0.00 | 0.00 | 0.00 | 69 | |
| 20260505082931 | 51 | 119 | 0.0 | 0.9 | 0.00 | 0.00 | 0.00 | 68 | |
| 20260505082426 | 51 | 89 | 0.0 | 0.0 | 0.00 | 0.00 | 0.00 | 68 | |
| 20260505081924 | 51 | 110 | 0.0 | 0.9 | 0.00 | 0.00 | 0.00 | 67 | |
| 20260505081421 | 51 | 103 | 0.0 | 0.0 | 0.00 | 0.00 | 0.00 | 67 | |
| 20260505080917 | 51 | 89 | 0.0 | 0.9 | 0.00 | 0.00 | 0.00 | 65 | |
| 20260505080413 | 52 | 121 | 0.0 | 0.9 | 0.00 | 0.00 | 0.00 | 64 | |
| 20260505075909 | 53 | 95 | 0.0 | 0.9 | 0.00 | 0.00 | 0.00 | 61 | |
| 20260505075406 | 52 | 94 | 0.0 | 0.9 | 0.00 | 0.00 | 0.00 | 62 | |
| 20260505074903 | 52 | 115 | 0.0 | 0.0 | 0.00 | 0.00 | 0.00 | 63 | |
| 20260505074400 | 53 | 134 | 0.0 | 0.0 | 0.00 | 0.00 | 0.00 | 62 | |
| 20260505073857 | 53 | 93 | 0.0 | 0.0 | 0.00 | 0.00 | 0.00 | 61 | |
| 20260505073355 | 53 | 343 | 0.0 | 0.0 | 0.00 | 0.00 | 0.00 | 61 | |
| 20260505072852 | 53 | 30 | 0.0 | 0.0 | 0.00 | 0.00 | 0.00 | 60 | |
| 20260505072348 | 54 | 54 | 0.0 | 0.0 | 0.00 | 0.00 | 0.00 | 58 | |
| 20260505071844 | 54 | 292 | 0.9 | 0.9 | 0.00 | 0.00 | 0.00 | 59 | |
| 20260505071341 | 53 | 303 | 0.0 | 0.0 | 0.00 | 0.00 | 0.00 | 61 | |
| 20260505070839 | 54 | 269 | 0.0 | 0.0 | 0.00 | 0.00 | 0.00 | 60 | |
| 20260505070335 | 54 | 257 | 0.0 | 0.0 | 0.00 | 0.00 | 0.00 | 61 | |
| 20260505065830 | 54 | 22 | 0.0 | 0.9 | 0.00 | 0.00 | 0.00 | 59 | |
| 20260505065327 | 54 | 27 | 0.0 | 0.0 | 0.00 | 0.00 | 0.00 | 60 | |
| 20260505064825 | 54 | 2 | 0.0 | 0.0 | 0.00 | 0.00 | 0.00 | 60 | |
| 20260505064321 | 55 | 355 | 0.0 | 0.9 | 0.00 | 0.00 | 0.00 | 58 | |
| 20260505063820 | 55 | 4 | 0.0 | 0.9 | 0.00 | 0.00 | 0.00 | 57 | |
| 20260505063315 | 54 | 348 | 0.9 | 0.9 | 0.00 | 0.00 | 0.00 | 58 | |
| 20260505062812 | 54 | 20 | 0.0 | 0.9 | 0.00 | 0.00 | 0.00 | 58 | |
| 20260505062310 | 55 | 84 | 0.0 | 0.9 | 0.00 | 0.00 | 0.00 | 58 | |
| 20260505061806 | 55 | 63 | 0.0 | 0.0 | 0.00 | 0.00 | 0.00 | 56 | |
| 20260505061304 | 55 | 6 | 0.0 | 0.0 | 0.00 | 0.00 | 0.00 | 55 | |
| 20260505060802 | 55 | 50 | 0.0 | 0.9 | 0.00 | 0.00 | 0.00 | 54 | |
| 20260505060259 | 55 | 33 | 0.0 | 0.9 | 0.00 | 0.00 | 0.00 | 54 | |
| 20260505055754 | 55 | 56 | 0.0 | 0.0 | 0.00 | 0.00 | 0.00 | 55 | |
| 20260505055250 | 55 | 310 | 0.0 | 0.0 | 0.00 | 0.00 | 0.00 | 57 | |
| 20260505054748 | 55 | 32 | 0.0 | 0.0 | 0.00 | 0.00 | 0.00 | 57 | |
| 20260505054245 | 55 | 56 | 0.0 | 0.0 | 0.00 | 0.00 | 0.00 | 57 | |
| 20260505053743 | 55 | 87 | 0.0 | 0.0 | 0.00 | 0.00 | 0.00 | 57 | |
| 20260505053240 | 55 | 109 | 0.0 | 0.0 | 0.00 | 0.00 | 0.00 | 59 | |
| 20260505052737 | 55 | 86 | 0.0 | 0.0 | 0.00 | 0.00 | 0.00 | 59 | |
| 20260505052234 | 55 | 105 | 0.9 | 0.9 | 0.00 | 0.00 | 0.00 | 58 | |
| 20260505051731 | 55 | 63 | 0.0 | 0.0 | 0.00 | 0.00 | 0.00 | 57 | |
| 20260505051229 | 55 | 87 | 0.0 | 0.0 | 0.00 | 0.00 | 0.00 | 57 | |
| 20260505050727 | 55 | 106 | 0.0 | 0.0 | 0.00 | 0.00 | 0.00 | 58 | |
| 20260505050225 | 55 | 80 | 0.0 | 0.0 | 0.00 | 0.00 | 0.00 | 58 | |
| 20260505041654 | 57 | 85 | 0.0 | 0.0 | 0.00 | 0.00 | 0.00 | 52 | |
| 20260505041152 | 57 | 75 | 0.0 | 0.0 | 0.00 | 0.00 | 0.00 | 51 | |
| 20260505040648 | 57 | 94 | 0.0 | 0.9 | 0.00 | 0.00 | 0.00 | 50 | |
| 20260505040146 | 58 | 99 | 0.0 | 0.9 | 0.00 | 0.00 | 0.00 | 50 | |
| 20260505035642 | 58 | 154 | 0.0 | 0.9 | 0.00 | 0.00 | 0.00 | 50 | |
| 20260505035138 | 58 | 15 | 0.0 | 1.7 | 0.00 | 0.00 | 0.00 | 48 | |
| 20260505034635 | 58 | 32 | 0.9 | 0.9 | 0.00 | 0.00 | 0.00 | 48 | |
| 20260505034132 | 58 | 46 | 0.0 | 0.9 | 0.00 | 0.00 | 0.00 | 48 | |
| 20260505033628 | 59 | 0 | 0.0 | 1.7 | 0.00 | 0.00 | 0.00 | 48 | |
| 20260505033127 | 59 | 10 | 0.0 | 0.9 | 0.00 | 0.00 | 0.00 | 48 | |
| 20260505032625 | 59 | 44 | 0.0 | 1.7 | 0.00 | 0.00 | 0.00 | 48 | |
| 20260505032121 | 59 | 0 | 0.9 | 1.7 | 0.00 | 0.00 | 0.00 | 48 | |
| 20260505031618 | 59 | 59 | 0.9 | 1.7 | 0.00 | 0.00 | 0.00 | 48 | |
| 20260505031114 | 59 | 14 | 0.9 | 1.7 | 0.00 | 0.00 | 0.00 | 48 | |
| 20260505030611 | 59 | 54 | 0.9 | 1.7 | 0.00 | 0.00 | 0.00 | 48 | |
| 20260505030107 | 59 | 26 | 0.0 | 1.7 | 0.00 | 0.00 | 0.00 | 47 | |
| 20260505025603 | 59 | 31 | 0.9 | 1.7 | 0.00 | 0.00 | 0.00 | 47 | |
| 20260505025102 | 59 | 27 | 0.0 | 1.7 | 0.00 | 0.00 | 0.00 | 46 | |
| 20260505024559 | 59 | 25 | 0.9 | 1.7 | 0.00 | 0.00 | 0.00 | 47 | |
| 20260505024056 | 59 | 34 | 0.0 | 1.7 | 0.00 | 0.00 | 0.00 | 46 | |
| 20260505023553 | 59 | 67 | 0.9 | 0.9 | 0.00 | 0.00 | 0.00 | 47 | |
| 20260505023051 | 59 | 20 | 0.0 | 1.7 | 0.00 | 0.00 | 0.00 | 48 | |
| 20260505022548 | 60 | 48 | 0.0 | 1.7 | 0.00 | 0.00 | 0.00 | 47 | |
| 20260505022045 | 61 | 44 | 0.9 | 1.7 | 0.00 | 0.00 | 0.00 | 43 | |
| 20260505021542 | 62 | 2 | 0.0 | 0.9 | 0.00 | 0.00 | 0.00 | 41 | |
| 20260505021039 | 63 | 347 | 0.0 | 0.9 | 0.00 | 0.00 | 0.00 | 40 | |
| 20260505020538 | 63 | 77 | 0.0 | 0.9 | 0.00 | 0.00 | 0.00 | 39 | |
| 20260505020036 | 65 | 93 | 0.0 | 0.9 | 0.00 | 0.00 | 0.00 | 35 | |
| 20260505015533 | 66 | 110 | 0.0 | 0.0 | 0.00 | 0.00 | 0.00 | 31 | |
| 20260505015029 | 67 | 247 | 0.0 | 0.0 | 0.00 | 0.00 | 0.00 | 30 | |
| 20260505014526 | 68 | 217 | 0.0 | 0.0 | 0.00 | 0.00 | 0.00 | 29 | |
| 20260505014024 | 68 | 349 | 0.0 | 0.0 | 0.00 | 0.00 | 0.00 | 28 | |
| 20260505013521 | 68 | 344 | 0.0 | 0.9 | 0.00 | 0.00 | 0.00 | 29 | |
| 20260505013018 | 67 | 309 | 0.0 | 0.9 | 0.00 | 0.00 | 0.00 | 30 | |
| 20260505012516 | 68 | 330 | 0.0 | 0.9 | 0.00 | 0.00 | 0.00 | 29 | |
| 20260505012013 | 69 | 328 | 0.0 | 0.9 | 0.00 | 0.00 | 0.00 | 28 | |
| 20260505011508 | 69 | 326 | 0.9 | 1.7 | 0.00 | 0.00 | 0.00 | 27 | |
| 20260505011005 | 69 | 298 | 0.0 | 0.9 | 0.00 | 0.00 | 0.00 | 28 | |
| 20260505010501 | 70 | 292 | 0.9 | 0.9 | 0.00 | 0.00 | 0.00 | 27 | |
| 20260505005957 | 70 | 300 | 0.9 | 0.9 | 0.00 | 0.00 | 0.00 | 27 | |
| 20260505005454 | 70 | 292 | 0.9 | 1.7 | 0.00 | 0.00 | 0.00 | 26 | |
| 20260505004952 | 70 | 275 | 0.9 | 0.9 | 0.00 | 0.00 | 0.00 | 26 | |
| 20260505004448 | 70 | 292 | 0.9 | 0.9 | 0.00 | 0.00 | 0.00 | 27 | |
| 20260505003945 | 71 | 294 | 0.0 | 0.9 | 0.00 | 0.00 | 0.00 | 26 | |
| 20260505003442 | 71 | 288 | 0.9 | 0.9 | 0.00 | 0.00 | 0.00 | 25 | |
| 20260505002938 | 71 | 286 | 0.0 | 0.9 | 0.00 | 0.00 | 0.00 | 25 | |
| 20260505002435 | 71 | 299 | 0.0 | 0.9 | 0.00 | 0.00 | 0.00 | 24 | |
| 20260505001933 | 71 | 308 | 0.0 | 0.9 | 0.00 | 0.00 | 0.00 | 24 | |
| 20260505001431 | 71 | 303 | 0.0 | 0.9 | 0.00 | 0.00 | 0.00 | 24 | |
| 20260505000927 | 71 | 289 | 0.0 | 0.9 | 0.00 | 0.00 | 0.00 | 24 | |
| 20260505000427 | 71 | 286 | 0.0 | 0.9 | 0.00 | 0.00 | 0.00 | 24 | |
| 20260504235922 | 71 | 298 | 0.9 | 1.7 | 0.00 | 0.00 | 0.00 | 22 | |
| 20260504235420 | 71 | 295 | 0.9 | 1.7 | 0.00 | 0.00 | 0.00 | 22 | |
| 20260504234915 | 72 | 298 | 0.9 | 0.9 | 0.00 | 0.00 | 0.00 | 23 | |
| 20260504234413 | 72 | 302 | 0.9 | 0.9 | 0.00 | 0.00 | 0.00 | 23 | |
| 20260504233909 | 72 | 324 | 0.9 | 1.7 | 0.00 | 0.00 | 0.00 | 23 | |
| 20260504233405 | 72 | 281 | 0.9 | 0.9 | 0.00 | 0.00 | 0.00 | 23 | |
| 20260504232902 | 72 | 268 | 0.9 | 0.9 | 0.00 | 0.00 | 0.00 | 22 | |
| 20260504232359 | 72 | 275 | 0.9 | 0.9 | 0.00 | 0.00 | 0.00 | 22 | |
| 20260504231856 | 72 | 317 | 0.9 | 1.7 | 0.00 | 0.00 | 0.00 | 22 | |
| 20260504231352 | 73 | 213 | 0.9 | 0.9 | 0.00 | 0.00 | 0.00 | 22 | |
| 20260504230849 | 73 | 216 | 0.0 | 0.9 | 0.00 | 0.00 | 0.00 | 22 | |
| 20260504230346 | 73 | 284 | 0.9 | 0.9 | 0.00 | 0.00 | 0.00 | 21 | |
| 20260504225845 | 72 | 204 | 0.0 | 0.9 | 0.00 | 0.00 | 0.00 | 21 | |
| 20260504225341 | 73 | 229 | 0.0 | 0.9 | 0.00 | 0.00 | 0.00 | 21 | |
| 20260504224839 | 72 | 293 | 0.0 | 0.9 | 0.00 | 0.00 | 0.00 | 22 | |
| 20260504224335 | 73 | 267 | 0.0 | 0.9 | 0.00 | 0.00 | 0.00 | 21 | |
| 20260504223832 | 72 | 223 | 0.0 | 0.9 | 0.00 | 0.00 | 0.00 | 21 | |
| 20260504223327 | 73 | 283 | 0.9 | 1.7 | 0.00 | 0.00 | 0.00 | 20 | |
| 20260504222824 | 72 | 269 | 0.0 | 1.7 | 0.00 | 0.00 | 0.00 | 21 | |
| 20260504222321 | 73 | 261 | 0.0 | 0.9 | 0.00 | 0.00 | 0.00 | 21 | |
| 20260504221820 | 73 | 237 | 0.9 | 0.9 | 0.00 | 0.00 | 0.00 | 21 | |
| 20260504221316 | 72 | 211 | 0.0 | 0.9 | 0.00 | 0.00 | 0.00 | 21 | |
| 20260504220813 | 73 | 290 | 0.9 | 1.7 | 0.00 | 0.00 | 0.00 | 21 | |
| 20260504220310 | 72 | 237 | 0.0 | 0.9 | 0.00 | 0.00 | 0.00 | 23 | |
| 20260504215808 | 71 | 273 | 0.9 | 1.7 | 0.00 | 0.00 | 0.00 | 23 | |
| 20260504215304 | 71 | 260 | 0.0 | 1.7 | 0.00 | 0.00 | 0.00 | 24 | |
| 20260504214759 | 71 | 253 | 0.0 | 1.7 | 0.00 | 0.00 | 0.00 | 24 | |
| 20260504214256 | 71 | 302 | 0.9 | 1.7 | 0.00 | 0.00 | 0.00 | 23 | |
| 20260504213753 | 72 | 303 | 0.0 | 1.7 | 0.00 | 0.00 | 0.00 | 24 | |
| 20260504213249 | 72 | 272 | 0.9 | 0.9 | 0.00 | 0.00 | 0.00 | 24 | |
| 20260504212746 | 72 | 256 | 0.0 | 0.9 | 0.00 | 0.00 | 0.00 | 23 | |
| 20260504212243 | 71 | 286 | 0.0 | 1.7 | 0.00 | 0.00 | 0.00 | 23 | |
| 20260504211740 | 71 | 178 | 0.0 | 0.9 | 0.00 | 0.00 | 0.00 | 22 | |
| 20260504211236 | 72 | 312 | 0.0 | 1.7 | 0.00 | 0.00 | 0.00 | 24 | |
| 20260504210734 | 73 | 275 | 0.9 | 1.7 | 0.00 | 0.00 | 0.00 | 23 | |
| 20260504210231 | 73 | 218 | 0.9 | 0.9 | 0.00 | 0.00 | 0.00 | 23 | |
| 20260504205728 | 72 | 162 | 0.0 | 0.9 | 0.00 | 0.00 | 0.00 | 23 | |
| 20260504205226 | 72 | 265 | 0.0 | 0.9 | 0.00 | 0.00 | 0.00 | 24 | |
| 20260504204724 | 73 | 245 | 0.0 | 0.9 | 0.00 | 0.00 | 0.00 | 25 | |
| 20260504204222 | 72 | 209 | 0.9 | 0.9 | 0.00 | 0.00 | 0.00 | 24 | |
| 20260504203721 | 71 | 203 | 0.9 | 0.9 | 0.00 | 0.00 | 0.00 | 25 | |
| 20260504203218 | 72 | 279 | 0.9 | 1.7 | 0.00 | 0.00 | 0.00 | 25 | |
| 20260504202718 | 71 | 275 | 0.9 | 1.7 | 0.00 | 0.00 | 0.00 | 25 | |
| 20260504202215 | 72 | 303 | 0.9 | 1.7 | 0.00 | 0.00 | 0.00 | 26 | |
| 20260504201712 | 71 | 281 | 0.9 | 1.7 | 0.00 | 0.00 | 0.00 | 25 | |
| 20260504201209 | 73 | 281 | 0.0 | 1.7 | 0.00 | 0.00 | 0.00 | 27 | |
| 20260504200707 | 73 | 230 | 0.0 | 1.7 | 0.00 | 0.00 | 0.00 | 25 | |
| 20260504200203 | 72 | 211 | 0.9 | 1.7 | 0.00 | 0.00 | 0.00 | 23 | |
| 20260504195659 | 72 | 273 | 0.9 | 1.7 | 0.00 | 0.00 | 0.00 | 20 | |
| 20260504195155 | 72 | 295 | 0.9 | 1.7 | 0.00 | 0.00 | 0.00 | 22 | |
| 20260504194652 | 71 | 265 | 0.9 | 1.7 | 0.00 | 0.00 | 0.00 | 24 | |
| 20260504194148 | 72 | 285 | 1.7 | 1.7 | 0.00 | 0.00 | 0.00 | 24 | |
| 20260504193645 | 71 | 299 | 0.0 | 0.9 | 0.00 | 0.00 | 0.00 | 25 | |
| 20260504193143 | 70 | 289 | 0.0 | 1.7 | 0.00 | 0.00 | 0.00 | 25 | |
| 20260504192640 | 71 | 281 | 0.9 | 1.7 | 0.00 | 0.00 | 0.00 | 24 | |
| 20260504192138 | 71 | 274 | 0.9 | 1.7 | 0.00 | 0.00 | 0.00 | 23 | |
| 20260504191637 | 70 | 265 | 0.9 | 0.9 | 0.00 | 0.00 | 0.00 | 20 | |
| 20260504191132 | 73 | 225 | 0.0 | 1.7 | 0.00 | 0.00 | 0.00 | 20 | |
| 20260504190629 | 73 | 316 | 0.0 | 0.9 | 0.00 | 0.00 | 0.00 | 21 | |
| 20260504190125 | 72 | 303 | 0.0 | 1.7 | 0.00 | 0.00 | 0.00 | 19 | |
| 20260504185622 | 74 | 287 | 0.0 | 0.9 | 0.00 | 0.00 | 0.00 | 19 | |
| 20260504185118 | 73 | 275 | 0.9 | 1.7 | 0.00 | 0.00 | 0.00 | 20 | |
| 20260504184614 | 71 | 282 | 0.0 | 0.9 | 0.00 | 0.00 | 0.00 | 20 | |
| 20260504184109 | 72 | 224 | 0.9 | 1.7 | 0.00 | 0.00 | 0.00 | 19 | |
| 20260504183607 | 72 | 285 | 0.0 | 0.9 | 0.00 | 0.00 | 0.00 | 19 | |
| 20260504183105 | 74 | 315 | 1.7 | 1.7 | 0.00 | 0.00 | 0.00 | 18 | |
| 20260504182602 | 74 | 280 | 0.9 | 0.9 | 0.00 | 0.00 | 0.00 | 18 | |
| 20260504182059 | 72 | 211 | 0.0 | 0.9 | 0.00 | 0.00 | 0.00 | 20 | |
| 20260504181556 | 73 | 256 | 0.0 | 0.9 | 0.00 | 0.00 | 0.00 | 20 | |
| 20260504181054 | 73 | 282 | 0.0 | 0.9 | 0.00 | 0.00 | 0.00 | 21 | |
| 20260504180553 | 73 | 257 | 0.9 | 0.9 | 0.00 | 0.00 | 0.00 | 19 | |
| 20260504180051 | 72 | 326 | 0.9 | 0.9 | 0.00 | 0.00 | 0.00 | 18 | |
| 20260504175548 | 73 | 320 | 0.9 | 1.7 | 0.00 | 0.00 | 0.00 | 17 | |
| 20260504175045 | 71 | 335 | 0.9 | 1.7 | 0.00 | 0.00 | 0.00 | 19 | |
| 20260504174543 | 71 | 308 | 0.9 | 0.9 | 0.00 | 0.00 | 0.00 | 19 | |
| 20260504174039 | 72 | 339 | 0.9 | 1.7 | 0.00 | 0.00 | 0.00 | 19 | |
| 20260504173536 | 71 | 321 | 0.9 | 1.7 | 0.00 | 0.00 | 0.00 | 19 | |
| 20260504173034 | 72 | 327 | 0.9 | 1.7 | 0.00 | 0.00 | 0.00 | 20 | |
| 20260504172530 | 71 | 289 | 0.9 | 1.7 | 0.00 | 0.00 | 0.00 | 20 | |
| 20260504172026 | 71 | 302 | 0.9 | 1.7 | 0.00 | 0.00 | 0.00 | 22 | |
| 20260504171524 | 71 | 291 | 0.9 | 0.9 | 0.00 | 0.00 | 0.00 | 23 | |
| 20260504171021 | 71 | 252 | 0.9 | 1.7 | 0.00 | 0.00 | 0.00 | 22 | |
| 20260504170516 | 70 | 263 | 0.9 | 1.7 | 0.00 | 0.00 | 0.00 | 22 | |
| 20260504160437 | 68 | 267 | 0.9 | 1.7 | 0.00 | 0.00 | 0.00 | 28 |